Probability
0 0 0 0 0 0 0 0 0 0 0 0 0 1 2 2 1 0 1 2 2 2 2 1 1 0 1 2 3 3 3 3 3 3 2 1 1 1 0 0 0 0 0 0
0 0 0 0 0 0 0 0 0 0 0 0 0 0 1 1 0 0 0 1 1 2 3 2 2 1 1 3 4 3 3 3 3 4 3 1 1 0 0 0 0 0 0 0
0 0 0 0 0 0 0 0 0 0 0 0 0 0 0 0 0 0 0 1 1 3 3 3 3 2 1 3 5 4 4 4 4 5 3 2 2 1 0 0 0 0 0 0
0 0 0 0 0 0 0 0 0 0 0 0 0 0 0 0 0 0 0 1 2 2 3 3 3 3 2 3 5 5 5 6 6 6 4 4 4 3 1 0 0 0 0 0
0 0 0 0 0 0 0 0 0 0 0 0 0 0 0 0 0 0 0 1 2 1 1 3 3 4 4 5 6 6 5 6 8 8 6 5 5 4 2 1 1 0 0 0
0 0 0 0 0 0 0 0 0 0 0 0 0 0 0 0 0 0 0 1 1 1 1 2 4 5 7 9 9 7 6 6 8 8 7 6 5 4 2 2 2 1 1 0
0 0 0 0 0 0 0 0 0 0 0 0 0 0 0 0 0 0 0 0 0 0 0 2 5 7 10 12 12 10 8 7 8 7 6 5 4 3 2 3 3 3 2 1
0 0 0 0 0 0 0 0 0 0 0 0 0 0 1 1 2 1 1 0 0 0 1 2 5 8 11 12 12 11 9 7 7 6 5 5 4 3 2 2 3 3 2 1
0 0 0 0 0 0 0 0 0 0 0 0 0 0 1 2 2 2 1 0 0 1 2 2 5 9 11 12 11 9 8 7 6 5 5 6 6 4 3 2 3 3 2 1
0 0 0 0 0 0 0 0 0 0 0 0 0 0 1 1 1 2 1 1 0 1 2 3 4 7 9 11 10 9 7 6 5 4 5 7 6 5 4 3 2 2 2 2
0 0 0 0 0 0 0 0 0 0 0 0 0 0 0 0 1 2 2 2 1 2 3 5 6 6 7 10 10 8 6 5 4 4 5 6 5 4 3 1 1 1 2 3
0 0 0 0 0 0 0 0 0 0 0 0 0 0 0 1 1 1 1 2 3 4 6 8 8 6 6 8 9 8 6 5 4 5 6 6 4 3 2 1 1 2 3 2
0 0 0 0 0 0 0 0 0 0 0 0 0 0 1 2 2 1 1 1 3 6 8 9 8 6 5 6 7 7 6 5 5 5 6 5 3 2 2 2 3 4 5 4
0 0 0 0 0 0 0 0 0 0 0 0 0 0 1 2 2 1 0 0 2 5 7 8 7 6 5 4 4 5 5 5 5 5 5 3 1 1 2 3 3 4 5 6
0 0 0 0 0 0 0 0 0 0 0 0 0 0 0 1 1 0 0 1 2 5 7 7 7 6 5 4 3 3 4 4 4 5 4 2 0 1 2 3 3 3 4 5
0 0 0 0 0 0 0 0 0 0 0 0 0 0 0 0 0 0 0 1 3 4 5 6 6 5 4 3 3 3 3 3 4 5 4 2 1 2 3 4 4 4 4 4
0 0 0 0 0 0 0 0 0 0 0 0 0 0 0 0 0 0 0 1 2 3 4 6 6 3 2 2 3 2 1 1 3 3 3 2 2 3 4 5 5 5 4 4
0 0 0 0 0 0 0 0 0 0 0 0 0 0 0 0 0 0 0 0 1 2 4 5 5 3 1 1 2 1 0 1 2 3 2 2 3 3 4 5 4 4 4 4
0 0 0 0 0 0 0 0 0 0 0 0 0 0 0 0 0 0 0 0 0 2 4 4 4 3 1 0 0 0 0 1 2 2 1 1 1 1 1 3 3 3 3 3
0 0 0 0 0 0 0 0 0 0 0 0 0 0 0 0 0 0 0 0 0 1 3 4 4 3 1 0 0 0 0 0 1 1 0 0 0 0 0 1 2 3 3 3
0 0 0 0 0 0 0 0 0 0 0 0 0 0 0 0 0 0 0 0 0 1 4 5 5 4 2 1 0 0 0 0 0 0 0 0 0 0 0 0 1 2 3 3
0 0 0 0 0 0 0 0 0 0 0 0 0 0 0 0 0 0 0 0 1 3 5 6 6 4 3 1 0 0 1 1 1 1 0 0 0 0 0 0 0 1 2 3
0 0 0 0 0 0 0 0 0 0 0 0 0 0 0 0 0 0 0 1 2 4 5 6 6 5 3 1 1 1 2 2 2 1 0 0 0 0 0 0 0 0 1 2
0 0 0 0 0 0 0 0 0 0 0 0 0 0 0 0 0 0 1 1 3 5 6 7 7 5 3 2 2 3 3 3 2 1 0 0 0 0 0 0 0 0 0 1
0 0 0 0 0 0 0 0 0 0 0 0 0 0 0 0 0 1 2 3 4 5 7 8 7 5 3 3 3 3 3 3 1 0 0 0 0 0 0 0 0 0 0 0
0 0 0 0 0 0 0 0 0 0 0 0 0 0 0 0 1 2 3 3 4 5 6 8 8 5 2 2 3 2 3 2 1 0 0 0 0 0 0 0 0 0 0 0
Wind_Speed
7 6 5 4 5 6 5 5 4 2 1 2 4 4 4 5 5 5 5 5 6 6 7 7 7 5 4 4 4 5 5 4 4 2 2 2 2 2 2 2 3 3 4 3
5 6 4 4 5 6 6 6 5 2 1 3 4 4 4 5 4 4 4 4 5 7 7 7 7 6 5 5 4 5 5 5 5 3 2 2 2 2 2 2 2 2 3 2
7 3 2 5 5 6 7 6 5 5 5 6 6 5 4 6 5 4 3 3 3 4 7 8 7 6 5 4 4 4 4 5 5 4 2 2 2 2 2 2 1 1 2 2
6 4 4 5 5 5 6 4 6 7 6 5 6 3 4 6 6 6 4 3 3 3 4 6 5 5 5 4 3 3 3 4 4 4 3 3 3 2 2 2 1 1 2 2
5 3 5 6 4 5 6 6 8 9 7 8 8 5 3 5 5 6 6 5 4 4 4 6 5 5 5 4 3 3 3 3 4 4 4 2 2 2 2 2 2 2 2 2
8 5 5 5 4 5 6 9 10 9 6 8 8 5 2 2 4 6 5 6 5 5 5 5 6 5 4 4 4 3 3 3 2 3 4 3 3 3 3 2 2 2 1 1
8 8 6 4 6 6 7 6 4 4 5 4 3 3 3 4 5 5 6 5 5 6 5 5 7 6 5 5 4 4 4 3 2 2 3 3 3 3 3 2 2 2 1 1
7 5 4 3 4 5 6 7 5 4 4 3 3 1 4 6 6 5 6 5 5 5 5 5 7 6 6 5 4 3 4 3 2 2 2 2 3 2 2 2 2 2 2 1
6 3 2 3 3 6 6 6 7 7 9 7 3 3 3 5 6 5 5 5 4 4 5 5 5 6 6 6 5 4 4 3 2 2 1 2 3 2 1 1 1 1 1 2
8 8 4 4 5 8 8 8 5 4 5 6 4 2 3 6 5 5 4 4 4 4 5 6 5 5 5 5 5 4 4 3 3 2 1 2 2 2 2 1 1 1 1 1
8 9 6 6 7 7 7 7 6 5 5 4 4 1 3 5 4 4 4 4 4 4 4 5 5 5 5 4 5 5 4 3 2 2 2 2 2 2 2 1 1 1 1 1
5 6 9 9 5 5 7 8 7 5 6 6 6 1 2 4 5 4 3 4 4 4 4 4 5 5 5 4 4 5 5 4 3 2 2 2 1 2 2 1 1 1 1 1
7 6 8 6 4 4 7 7 6 6 7 7 7 2 2 3 5 5 3 3 3 4 5 4 4 4 3 3 4 4 4 4 4 3 3 2 1 1 1 1 1 1 1 1
4 8 10 10 7 6 8 9 7 7 6 8 8 3 2 1 3 3 3 2 3 4 4 4 3 2 3 2 2 3 4 4 4 3 3 2 1 1 2 1 1 1 1 1
5 9 12 13 12 10 11 11 9 10 9 9 7 5 3 1 2 2 2 1 3 4 3 3 3 2 2 2 2 2 2 3 4 4 3 2 2 2 2 2 1 1 1 0
6 9 12 14 13 12 12 11 11 10 10 10 8 6 3 2 2 2 1 1 2 2 3 2 2 2 1 1 2 3 2 2 4 4 4 3 2 2 2 2 2 1 1 1
7 9 10 11 11 11 10 7 8 7 7 8 8 4 1 2 1 1 1 0 1 1 2 2 1 1 2 1 2 2 2 2 3 4 4 3 3 2 2 3 2 2 2 1
8 9 6 9 10 11 3 2 3 3 5 5 3 2 2 1 1 1 1 0 1 2 1 1 0 0 1 1 1 2 2 3 3 3 3 3 3 3 2 3 3 2 2 1
8 8 7 7 9 9 3 1 2 4 5 3 3 2 3 2 1 1 2 3 2 2 1 1 1 1 1 1 1 1 2 3 3 3 3 3 3 3 3 3 3 3 2 1
7 8 7 7 9 8 1 2 2 4 3 3 4 3 3 2 2 1 3 4 3 3 2 1 1 1 1 1 1 2 2 3 3 3 3 2 3 4 3 3 3 3 3 2
6 7 9 9 10 5 2 3 2 3 2 4 4 4 4 3 3 3 4 4 3 3 1 1 1 1 1 1 1 3 3 3 2 2 2 2 2 3 3 3 3 3 3 3
6 5 6 7 8 4 3 3 2 3 4 5 5 4 4 4 4 4 4 3 3 3 2 1 1 1 1 2 2 3 3 2 2 2 2 2 2 2 2 2 3 3 3 3
5 4 3 3 2 2 3 3 4 4 4 5 5 5 5 4 3 3 3 3 3 3 2 1 1 2 2 2 2 2 1 2 2 3 3 3 2 2 2 2 2 2 2 2
5 5 5 5 3 2 3 4 4 5 5 5 5 4 4 4 4 4 3 3 3 3 2 1 2 2 2 2 1 2 1 2 2 4 4 3 3 3 3 2 2 2 2 2
5 5 6 8 6 4 3 3 4 4 5 6 6 4 4 3 3 3 3 3 3 3 2 1 1 2 2 2 2 1 1 2 2 2 3 3 3 3 3 3 2 3 3 4
6 7 7 7 5 6 5 4 5 5 5 6 6 5 5 4 3 4 3 3 3 3 2 2 1 1 2 2 2 2 1 2 2 2 2 2 2 2 2 2 1 2 3 4
Wind_Direction
217 231 240 252 256 272 280 286 293 297 158 255 240 223 185 175 185 182 190 194 178 168 161 154 149 146 145 137 131 129 130 125 113 104 99 101 100 88 72 71 66 59 69 82
239 233 247 268 278 277 277 278 281 286 236 252 265 251 193 174 188 183 190 194 182 168 163 154 152 152 151 145 139 138 139 135 129 127 134 138 123 113 102 80 70 67 75 73
243 240 236 252 258 269 269 276 295 299 289 259 255 250 193 167 169 169 180 180 165 161 164 159 158 154 152 149 147 145 142 138 135 135 121 119 101 100 96 94 84 72 87 79
253 247 252 262 265 282 285 302 293 282 279 269 255 260 191 172 169 168 176 170 158 152 146 143 144 143 143 138 133 129 130 131 129 129 127 132 128 128 132 127 128 126 114 103
264 261 265 266 281 288 295 300 286 279 276 275 263 259 194 173 170 166 165 158 147 139 130 132 132 127 128 130 125 124 130 126 127 136 141 140 123 127 121 119 133 120 100 104
255 248 252 273 288 279 289 280 268 254 258 260 248 241 179 173 152 148 143 149 151 144 136 133 125 120 118 117 117 119 120 111 118 140 139 139 126 125 119 108 114 107 106 84
241 227 209 228 263 247 251 273 282 244 225 244 231 228 144 120 110 126 135 137 143 144 143 135 128 130 123 118 119 120 120 122 129 135 141 140 135 138 143 140 137 136 135 147
263 235 189 199 253 277 267 264 271 292 291 300 263 210 121 115 106 109 117 123 123 132 134 138 140 139 135 131 130 130 128 125 123 131 129 130 135 135 143 154 151 161 166 164
302 289 190 208 253 273 276 270 280 287 288 281 245 136 121 118 122 112 107 114 122 122 125 123 128 135 136 139 141 140 132 128 125 118 128 126 120 117 122 146 146 153 159 154
291 292 263 228 226 236 254 284 293 282 291 283 270 218 170 156 137 130 121 121 119 122 125 120 120 129 136 147 150 143 140 140 139 142 133 120 116 130 136 126 106 118 119 114
285 285 274 240 234 250 240 250 263 273 268 282 293 346 81 119 124 130 131 127 117 113 122 122 125 135 134 139 150 148 145 138 136 141 133 123 126 123 128 127 140 144 118 114
289 286 279 265 243 262 273 265 264 267 276 276 277 250 80 109 113 98 103 113 111 117 107 111 123 123 138 151 161 160 155 150 148 147 139 127 144 151 147 139 142 126 124 135
330 281 278 266 209 218 253 263 273 281 279 270 270 225 128 103 99 96 87 95 108 109 107 103 107 122 134 152 162 162 158 156 150 148 147 142 152 157 138 150 151 142 133 124
298 276 275 279 297 298 277 277 277 274 268 272 276 272 204 118 90 87 84 78 105 109 111 111 107 120 129 138 153 160 163 158 149 148 154 159 169 155 153 160 131 126 121 136
262 273 281 285 286 282 279 279 274 269 272 274 283 290 289 27 95 98 106 96 94 102 107 122 128 126 136 155 158 143 155 158 153 151 157 176 175 146 156 146 142 137 120 107
258 273 285 284 281 275 274 273 267 266 273 275 273 277 307 56 65 91 79 71 102 119 125 124 141 149 165 177 167 156 150 164 157 158 164 169 160 143 159 155 153 154 137 109
262 267 280 282 288 283 268 273 268 262 268 274 277 286 355 38 14 32 74 200 159 125 126 133 169 190 185 196 184 165 164 168 161 162 156 154 154 144 165 166 159 162 158 142
266 274 274 277 281 269 265 354 337 299 286 294 304 326 338 12 6 57 63 39 59 61 86 88 305 266 280 213 173 165 167 168 155 156 158 161 161 158 169 169 165 173 176 167
253 264 272 272 274 274 249 342 316 294 293 321 320 336 354 2 344 40 61 45 47 31 53 54 317 309 283 275 179 154 167 161 156 157 165 170 168 167 173 176 175 182 184 192
243 249 257 267 271 274 324 29 342 287 263 25 17 8 358 328 300 37 44 36 30 22 38 11 323 311 294 282 187 177 184 178 177 168 172 181 174 171 179 184 183 181 169 193
233 237 243 257 263 271 12 356 313 269 16 29 14 12 353 348 8 14 15 17 10 356 356 336 318 307 288 287 227 203 203 194 175 160 169 183 186 185 182 181 179 178 177 189
274 262 249 252 255 263 37 349 354 14 12 1 0 359 357 0 12 8 5 356 343 331 322 299 283 282 278 261 236 215 201 182 166 167 178 190 190 189 188 179 184 182 181 192
263 281 294 286 290 6 32 24 3 355 348 355 351 350 346 339 343 338 338 331 324 320 315 311 292 285 278 268 245 236 183 160 177 182 191 191 192 182 178 179 178 179 181 195
287 312 296 287 274 315 342 0 3 352 342 337 328 326 329 326 334 338 335 329 323 313 304 305 306 291 282 275 271 252 190 181 196 196 193 193 191 191 189 185 182 177 188 203
298 302 287 281 287 296 294 325 335 338 335 325 318 315 323 324 322 324 321 320 316 312 312 298 267 286 294 293 293 269 200 180 201 201 197 198 198 191 188 188 194 194 200 197
272 274 273 274 294 297 301 310 319 319 317 320 323 326 329 324 321 325 323 315 316 322 324 322 324 314 307 306 303 287 234 208 203 210 209 203 197 191 188 184 192 214 211 207